CW6225 Weather Reports


time (UTC)temp
C
wind
direction
speed
KPH
gust
KPH
rain 1hr
cm
rain 24hr
cm
rain mn
cm
humidity
%
barometer
mb
20260902023101 15 0 0.0 0.0 0.00 0.00 0.00 79 1008.8
20260902021602 15 0 0.0 0.0 0.00 0.00 0.00 79 1008.9
20260902020107 15 0 0.0 0.0 0.00 0.00 0.00 79 1009.0
20260902014601 15 0 0.0 0.0 0.00 0.00 0.00 79 1009.1
20260902013100 15 0 0.0 3.2 0.00 0.00 0.00 79 1009.1
20260902011602 15 0 0.0 6.4 0.00 0.00 0.00 80 1009.2
20260902004604 15 163 1.6 8.0 0.00 0.00 0.00 81 1009.1
20260902003104 15 168 3.2 9.7 0.00 0.00 0.00 80 1009.1
20260902001603 15 165 3.2 6.4 0.00 0.00 0.00 79 1008.9
20260902000109 16 162 4.8 8.0 0.00 0.00 0.00 78 1008.9
20260901234555 16 163 4.8 8.0 0.00 0.00 0.00 78 1008.9
20260901233058 16 153 4.8 9.7 0.00 0.00 0.00 78 1009.0
20260901231554 16 164 6.4 9.7 0.00 0.00 0.00 79 1009.0
20260901230055 16 163 6.4 9.7 0.00 0.00 0.00 79 1009.0
20260901224600 16 165 6.4 9.7 0.00 0.00 0.00 79 1008.9
20260901223055 16 168 8.0 9.7 0.00 0.00 0.00 79 1009.1
20260901221604 16 164 8.0 11.3 0.00 0.00 0.00 78 1009.1
20260901220100 16 167 8.0 9.7 0.00 0.00 0.00 77 1009.2
20260901214610 16 163 8.0 11.3 0.00 0.00 0.00 79 1009.3
20260901213113 16 164 6.4 9.7 0.00 0.00 0.00 80 1009.4
20260901211600 16 170 6.4 9.7 0.00 0.00 0.00 80 1009.6
20260901210057 15 163 4.8 8.0 0.00 0.00 0.00 82 1009.6
20260901204559 15 169 3.2 8.0 0.00 0.00 0.00 83 1009.7
20260901203131 15 165 3.2 8.0 0.00 0.00 0.00 84 1009.7
20260901201600 15 165 4.8 9.7 0.00 0.00 0.00 84 1009.9
20260901200055 15 168 3.2 8.0 0.00 0.00 0.00 86 1009.6
20260901194557 13 171 3.2 6.4 0.00 0.00 0.00 88 1009.8
20260901193127 13 167 3.2 6.4 0.00 0.00 0.00 87 1009.9
20260901191553 14 163 4.8 8.0 0.00 0.00 0.00 84 1009.9
20260901190100 16 162 3.2 8.0 0.00 0.00 0.00 82 1009.9
20260901184555 15 163 4.8 8.0 0.00 0.00 0.00 85 1009.9
20260901183055 14 179 3.2 8.0 0.00 0.00 0.00 86 1009.9
20260901181606 14 171 3.2 6.4 0.00 0.00 0.00 88 1010.0
20260901174559 15 160 1.6 6.4 0.00 0.00 0.00 87 1009.9
20260901173101 14 0 0.0 4.8 0.00 0.00 0.00 87 1009.8
20260901171613 14 161 0.0 4.8 0.00 0.00 0.00 88 1009.9
20260901170106 14 0 0.0 1.6 0.00 0.00 0.00 87 1009.7
20260901164558 14 0 0.0 1.6 0.00 0.00 0.00 88 1009.8
20260901163101 13 0 0.0 1.6 0.00 0.00 0.00 90 1009.9
20260901161558 13 0 0.0 0.0 0.00 0.00 0.00 91 1009.8
20260901160106 13 0 0.0 0.0 0.00 0.00 0.00 91 1009.8
20260901154606 13 0 0.0 0.0 0.00 0.00 0.00 92 1009.9
20260901153056 12 0 0.0 0.0 0.00 0.00 0.00 92 1009.7
20260901151555 12 0 0.0 0.0 0.00 0.00 0.00 92 1009.6
20260901150108 12 0 0.0 0.0 0.00 0.00 0.00 91 1009.7
20260901144557 12 0 0.0 1.6 0.00 0.00 0.00 91 1009.6
20260901143107 12 0 0.0 0.0 0.00 0.00 0.00 91 1009.5
20260901141551 12 0 0.0 1.6 0.00 0.00 0.00 92 1009.4
20260901134618 12 0 0.0 1.6 0.00 0.00 0.00 92 1009.1
20260901133059 12 184 0.0 0.0 0.00 0.00 0.00 91 1009.0
20260901131558 11 0 0.0 1.6 0.00 0.00 0.00 91 1008.8
20260901130059 11 0 0.0 0.0 0.00 0.00 0.00 91 1008.8
20260901124559 11 0 0.0 0.0 0.00 0.00 0.00 91 1008.8
20260901123052 11 0 0.0 0.0 0.00 0.00 0.00 91 1008.8
20260901121549 11 0 0.0 0.0 0.00 0.00 0.00 90 1008.7
20260901120059 11 0 0.0 0.0 0.00 0.00 0.00 90 1008.9
20260901114600 11 0 0.0 0.0 0.00 0.00 0.00 90 1008.9
20260901113105 11 0 0.0 0.0 0.00 0.00 0.00 90 1008.9
20260901111558 11 0 0.0 0.0 0.00 0.00 0.00 90 1009.0
20260901110056 11 0 0.0 0.0 0.00 0.00 0.00 89 1009.0
20260901104603 11 0 0.0 0.0 0.00 0.00 0.00 89 1008.8
20260901103105 11 0 0.0 0.0 0.00 0.00 0.00 88 1008.9
20260901101604 11 0 0.0 0.0 0.00 0.00 0.00 88 1009.1
20260901100056 12 0 0.0 0.0 0.00 0.00 0.00 88 1009.1
20260901094549 12 0 0.0 0.0 0.00 0.00 0.00 87 1008.9
20260901093059 12 0 0.0 0.0 0.00 0.00 0.00 87 1008.8
20260901091557 12 0 0.0 0.0 0.00 0.00 0.00 87 1008.8
20260901090055 12 0 0.0 0.0 0.00 0.00 0.00 86 1008.8
20260901084558 12 0 0.0 0.0 0.00 0.00 0.00 86 1008.7
20260901083058 12 0 0.0 0.0 0.00 0.00 0.00 85 1008.7
20260901081556 12 0 0.0 0.0 0.00 0.00 0.00 85 1008.9
20260901080109 12 0 0.0 0.0 0.00 0.00 0.00 85 1008.6
20260901074615 12 0 0.0 0.0 0.00 0.00 0.00 85 1008.8
20260901073101 12 0 0.0 0.0 0.00 0.00 0.00 84 1008.6
20260901071604 12 0 0.0 0.0 0.00 0.00 0.00 84 1008.8
20260901064559 13 0 0.0 0.0 0.00 0.00 0.00 84 1008.8
20260901063057 13 0 0.0 0.0 0.00 0.00 0.00 84 1008.8
20260901061555 13 0 0.0 0.0 0.00 0.00 0.00 84 1009.0
20260901054555 13 0 0.0 0.0 0.00 0.00 0.00 83 1009.1
20260901053054 13 0 0.0 3.2 0.00 0.00 0.00 81 1009.1
20260901051600 14 0 0.0 4.8 0.00 0.00 0.00 80 1009.1
20260901050057 14 0 0.0 4.8 0.00 0.00 0.00 79 1009.0
20260901044557 14 275 1.6 6.4 0.00 0.00 0.00 80 1009.1
20260901043054 14 0 1.6 6.4 0.00 0.00 0.00 82 1009.0
20260901041556 13 280 3.2 9.7 0.00 0.00 0.00 86 1009.0
20260901040113 12 0 0.0 0.0 0.00 0.00 0.00 86 1009.0
20260901034559 12 0 0.0 3.2 0.00 0.00 0.00 86 1008.9
20260901033057 13 0 0.0 1.6 0.00 0.00 0.00 85 1009.1
20260901031552 13 0 0.0 0.0 0.00 0.00 0.00 85 1009.0
20260901030100 13 0 0.0 0.0 0.00 0.00 0.00 84 1009.0
20260901024600 13 0 0.0 1.6 0.00 0.00 0.00 82 1009.1